Location: El Chorro
(10.0985°N, 67.3542°W)
Time: 17:45:31
(UTC+00:00)

GPS 2-12 Rocket1 - Pass Details

Date: 15 November 2025
Orbit: 562 x 616 km, 20.0° (Epoch: 06 December)

Event Time Altitude Azimuth Distance (km) Brightness Sun altitude
Rises 22:30:44 0° 290° (WNW) 2,845 7.4 -7.1°
Reaches altitude 10° 22:33:04 10° 291° (WNW) 1,948 6.5 -7.7°
Maximum altitude 22:37:38 79° 17° (NNE) 623 3.0 -8.7°
Drops below altitude 10° 22:42:15 10° 105° (ESE) 1,961 5.1 -9.8°
Enters shadow 22:42:35 - 105° (ESE) 2,092 5.3 -9.9°
